Weather in Kathmandu

Nepal     27°42′32″N   85°19′10″E
temp.,
°C
wind,
m/s
gust,
m/s
humid.,
%
clouds,
%
prec.,
mm/h
press.,
hPa
HPBL,
m
8 december, wed
wed823:45+9se11690 0.0 101911
02:45+9se11670 0.0 101813
05:45+9se12660 0.0 101814
08:45+14se11530 0.0 1020193
11:45+18w21430 0.0 10191383
14:45+18nw21440 0.0 10171440
17:45+11sw11680 0.0 101811
20:45+9sse11730 0.0 102010
9 december, thu
thu923:45+9se11730 0.0 102112
02:45+8se11732 0.0 101913
05:45+8se22735 0.0 101914
08:45+13ese11591 0.0 1021233
11:45+18wnw01470 0.0 10201407
14:45+18wnw214859 0.0 10171491
17:45+13wsw126339 0.0 101924
20:45+10se11700 0.0 102210
10 december, fri
fri1023:45+9se11720 0.0 102211
02:45+8se11730 0.0 102011
05:45+8se11720 0.0 102012
08:45+13ese11560 0.0 1020219
11:45+17wnw11420 0.0 10181491
14:45+17wnw22411 0.0 10151728
17:45+10wsw12661 0.0 101711
20:45+9se11740 0.0 101910
11 december, sat
sat1123:45+8se11770 0.0 101911
02:45+7se21760 0.0 101712
05:45+7se22730 0.0 101816
08:45+13ese12550 0.0 1019206
11:45+17nw11401 0.0 10181446
14:45+17nw21403 0.0 10151616
17:45+10sw11691 0.0 101812
20:45+8se11750 0.0 102010
12 december, sun
sun1223:45+7se11780 0.0 102010
02:45+7se22760 0.0 101913
05:45+7se22734 0.0 101816
08:45+12se12560 0.0 1020214
11:45+17wnw11432 0.0 10181412
14:45+17wnw214526 0.0 10151546
17:45+10wsw11731 0.0 101712
20:45+8se01795 0.0 102010